When you browse on this site, cookies collect data to enhance your experience and personalize the content and advertising you see.
Visit our Privacy Policy to learn more. By continuing to use the site, you agree to this use of cookies and data.
  • In United Kingdom
  • List of Countries
  • For 7 days
  • Water Temperature
  • Satellite Maps
  • Weather Map
  • Weather Widgets
  • user-avatar
    Login

    Hourly Weather Abercanaid

    Today, 19 May, Sunday

    Time Temperature Precipitation Wind Pressure Humidity
    00:00 +6°C° 0 mm 2 mps 732 mmHg 94%
    01:00 +6°C° 0 mm 2 mps 732 mmHg 94%
    02:00 +6°C° 0 mm 2 mps 732 mmHg 94%
    03:00 +6°C° 0 mm 2 mps 732 mmHg 94%
    04:00 +7°C° 0 mm 2 mps 732 mmHg 94%
    05:00 +7°C° 0 mm 2 mps 732 mmHg 93%
    06:00 +8°C° 0 mm 2 mps 732 mmHg 92%
    07:00 +10°C° 0 mm 2 mps 733 mmHg 87%
    08:00 +12°C° 0 mm 2 mps 733 mmHg 83%
    09:00 +14°C° 0 mm 2 mps 733 mmHg 79%
    10:00 +14°C° 0.5 mm 2 mps 733 mmHg 78%
    11:00 +15°C° 0.5 mm 2 mps 733 mmHg 77%
    12:00 +14°C° 0.5 mm 3 mps 733 mmHg 76%
    13:00 +14°C° 1 mm 3 mps 733 mmHg 77%
    14:00 +14°C° 1 mm 3 mps 733 mmHg 79%
    15:00 +14°C° 1 mm 3 mps 733 mmHg 80%
    16:00 +14°C° 0.8 mm 3 mps 733 mmHg 83%
    17:00 +13°C° 0.8 mm 3 mps 733 mmHg 85%
    18:00 +13°C° 0.8 mm 3 mps 733 mmHg 88%
    19:00 +12°C° 0.3 mm 3 mps 733 mmHg 90%
    20:00 +11°C° 0.3 mm 3 mps 733 mmHg 92%
    21:00 +10°C° 0.3 mm 2 mps 734 mmHg 94%
    22:00 +9°C° 0.1 mm 2 mps 734 mmHg 95%
    23:00 +9°C° 0.1 mm 2 mps 734 mmHg 95%

    Tomorrow, 20 May, Monday

    Time Temperature Precipitation Wind Pressure Humidity
    00:00 +8°C° 0.1 mm 2 mps 734 mmHg 95%
    01:00 +8°C° 0 mm 2 mps 734 mmHg 94%
    02:00 +8°C° 0 mm 2 mps 733 mmHg 94%
    03:00 +7°C° 0 mm 2 mps 733 mmHg 94%
    04:00 +8°C° 0 mm 2 mps 734 mmHg 93%
    05:00 +8°C° 0 mm 2 mps 734 mmHg 91%
    06:00 +9°C° 0 mm 1 mps 734 mmHg 90%
    07:00 +10°C° 0 mm 2 mps 734 mmHg 85%
    08:00 +12°C° 0 mm 2 mps 735 mmHg 79%
    09:00 +14°C° 0 mm 2 mps 735 mmHg 74%
    10:00 +14°C° 0.1 mm 2 mps 735 mmHg 73%
    11:00 +15°C° 0.1 mm 1 mps 735 mmHg 71%
    12:00 +16°C° 0.1 mm 1 mps 736 mmHg 70%
    13:00 +16°C° 0.4 mm 2 mps 736 mmHg 71%
    14:00 +16°C° 0.4 mm 2 mps 736 mmHg 72%
    15:00 +16°C° 0.4 mm 2 mps 736 mmHg 73%
    16:00 +16°C° 0.6 mm 3 mps 736 mmHg 77%
    17:00 +14°C° 0.6 mm 3 mps 736 mmHg 80%
    18:00 +14°C° 0.6 mm 3 mps 736 mmHg 84%
    19:00 +12°C° 0.2 mm 3 mps 736 mmHg 87%
    20:00 +11°C° 0.2 mm 3 mps 736 mmHg 90%
    21:00 +9°C° 0.2 mm 2 mps 737 mmHg 92%
    22:00 +8°C° 0 mm 2 mps 737 mmHg 92%
    23:00 +8°C° 0 mm 2 mps 737 mmHg 92%

    Day after tomorrow, 21 May, Tuesday

    Time Temperature Precipitation Wind Pressure Humidity
    00:00 +7°C° 0 mm 2 mps 737 mmHg 92%
    01:00 +7°C° 0 mm 2 mps 737 mmHg 91%
    02:00 +7°C° 0 mm 2 mps 737 mmHg 89%
    03:00 +6°C° 0 mm 2 mps 737 mmHg 88%
    04:00 +7°C° 0 mm 2 mps 738 mmHg 87%
    05:00 +7°C° 0 mm 2 mps 738 mmHg 86%
    06:00 +8°C° 0 mm 2 mps 738 mmHg 84%
    07:00 +10°C° 0 mm 2 mps 739 mmHg 78%
    08:00 +13°C° 0 mm 2 mps 739 mmHg 71%
    09:00 +14°C° 0 mm 2 mps 739 mmHg 65%
    10:00 +15°C° 0 mm 2 mps 740 mmHg 61%
    11:00 +16°C° 0 mm 2 mps 740 mmHg 58%
    12:00 +18°C° 0 mm 1 mps 740 mmHg 55%
    13:00 +18°C° 0 mm 1 mps 740 mmHg 57%
    14:00 +17°C° 0 mm 2 mps 740 mmHg 59%
    15:00 +17°C° 0 mm 2 mps 740 mmHg 61%
    16:00 +17°C° 0.1 mm 2 mps 740 mmHg 65%
    17:00 +16°C° 0.1 mm 2 mps 740 mmHg 70%
    18:00 +16°C° 0.1 mm 3 mps 740 mmHg 75%
    19:00 +14°C° 0 mm 2 mps 740 mmHg 78%
    20:00 +12°C° 0 mm 2 mps 741 mmHg 82%
    21:00 +9°C° 0 mm 2 mps 741 mmHg 85%
    22:00 +9°C° 0 mm 2 mps 741 mmHg 86%
    23:00 +8°C° 0 mm 2 mps 741 mmHg 86%

    22 May, Wednesday

    Time Temperature Precipitation Wind Pressure Humidity
    00:00 +7°C° 0 mm 2 mps 741 mmHg 86%
    01:00 +8°C° 0 mm 1 mps 741 mmHg 86%
    02:00 +7°C° 0 mm 1 mps 741 mmHg 86%
    03:00 +7°C° 0 mm 1 mps 741 mmHg 86%
    04:00 +8°C° 0 mm 1 mps 741 mmHg 85%
    05:00 +8°C° 0 mm 1 mps 741 mmHg 83%
    06:00 +9°C° 0 mm 1 mps 741 mmHg 82%
    07:00 +11°C° 0 mm 1 mps 741 mmHg 77%
    08:00 +12°C° 0 mm 1 mps 741 mmHg 72%
    09:00 +14°C° 0 mm 2 mps 742 mmHg 68%
    10:00 +15°C° 0 mm 2 mps 742 mmHg 66%
    11:00 +16°C° 0 mm 2 mps 742 mmHg 64%
    12:00 +17°C° 0 mm 2 mps 742 mmHg 62%
    13:00 +17°C° 0 mm 2 mps 741 mmHg 61%
    14:00 +18°C° 0 mm 2 mps 741 mmHg 61%
    15:00 +18°C° 0 mm 2 mps 741 mmHg 61%
    16:00 +17°C° 0 mm 2 mps 741 mmHg 66%
    17:00 +17°C° 0 mm 2 mps 740 mmHg 72%
    18:00 +16°C° 0 mm 2 mps 740 mmHg 77%
    19:00 +15°C° 0 mm 2 mps 740 mmHg 82%
    20:00 +14°C° 0 mm 2 mps 740 mmHg 86%
    21:00 +12°C° 0 mm 2 mps 740 mmHg 90%
    22:00 +12°C° 0 mm 2 mps 740 mmHg 91%
    23:00 +10°C° 0 mm 2 mps 740 mmHg 91%

    23 May, Thursday

    Time Temperature Precipitation Wind Pressure Humidity
    00:00 +9°C° 0 mm 2 mps 739 mmHg 91%
    01:00 +9°C° 0 mm 2 mps 739 mmHg 90%
    02:00 +9°C° 0 mm 1 mps 739 mmHg 90%
    03:00 +9°C° 0 mm 1 mps 738 mmHg 89%
    04:00 +10°C° 0 mm 1 mps 738 mmHg 88%
    05:00 +9°C° 0 mm 2 mps 738 mmHg 87%
    06:00 +10°C° 0 mm 2 mps 738 mmHg 86%
    07:00 +12°C° 0 mm 2 mps 738 mmHg 85%
    08:00 +13°C° 0 mm 3 mps 738 mmHg 83%
    09:00 +14°C° 0 mm 4 mps 737 mmHg 82%
    10:00 +14°C° 0 mm 4 mps 737 mmHg 75%
    11:00 +15°C° 0 mm 5 mps 737 mmHg 68%
    12:00 +16°C° 0 mm 5 mps 737 mmHg 61%
    13:00 +15°C° 0 mm 5 mps 736 mmHg 64%
    14:00 +15°C° 0 mm 6 mps 736 mmHg 68%
    15:00 +14°C° 0 mm 6 mps 736 mmHg 72%
    16:00 +13°C° 0 mm 5 mps 736 mmHg 78%
    17:00 +13°C° 0 mm 5 mps 735 mmHg 83%
    18:00 +12°C° 0 mm 5 mps 735 mmHg 88%
    19:00 +12°C° 0 mm 5 mps 734 mmHg 90%
    20:00 +11°C° 0 mm 4 mps 734 mmHg 93%
    21:00 +10°C° 0 mm 4 mps 734 mmHg 95%
    22:00 +9°C° 0.6 mm 5 mps 733 mmHg 95%
    23:00 +9°C° 0.6 mm 6 mps 732 mmHg 95%

    24 May, Friday

    Time Temperature Precipitation Wind Pressure Humidity
    00:00 +9°C° 0.6 mm 7 mps 732 mmHg 95%
    01:00 +9°C° 1.2 mm 7 mps 731 mmHg 95%
    02:00 +9°C° 1.2 mm 8 mps 731 mmHg 94%
    03:00 +9°C° 1.2 mm 8 mps 730 mmHg 93%
    04:00 +9°C° 0.1 mm 7 mps 730 mmHg 93%
    05:00 +9°C° 0.1 mm 7 mps 731 mmHg 93%
    06:00 +9°C° 0.1 mm 6 mps 731 mmHg 94%
    07:00 +9°C° 0.1 mm 7 mps 731 mmHg 92%
    08:00 +9°C° 0.1 mm 7 mps 731 mmHg 90%
    09:00 +10°C° 0.1 mm 7 mps 731 mmHg 88%
    10:00 +11°C° 0 mm 8 mps 730 mmHg 82%
    11:00 +12°C° 0 mm 8 mps 730 mmHg 77%
    12:00 +13°C° 0 mm 9 mps 730 mmHg 71%
    13:00 +13°C° 0 mm 8 mps 730 mmHg 71%
    14:00 +13°C° 0 mm 8 mps 730 mmHg 71%
    15:00 +14°C° 0 mm 7 mps 729 mmHg 72%
    16:00 +14°C° 0.1 mm 7 mps 729 mmHg 76%
    17:00 +12°C° 0.1 mm 7 mps 729 mmHg 80%
    18:00 +11°C° 0.1 mm 6 mps 729 mmHg 84%
    19:00 +11°C° 0 mm 6 mps 730 mmHg 87%
    20:00 +10°C° 0 mm 5 mps 730 mmHg 90%
    21:00 +10°C° 0 mm 4 mps 730 mmHg 94%
    22:00 +10°C° 0 mm 4 mps 731 mmHg 95%
    23:00 +8°C° 0 mm 4 mps 731 mmHg 95%
    Show more